PANDORE

operational
NORAD ID: 63244 Int'l Des: 2025-052 Owner: USPACE Country: F
LEOCIRCULARRETROGRADESSO

PANDOREについて

説明を読み込み中...

リアルタイム位置

3D地球を読み込み中...

次回通過

高度履歴

Altitude vs Time

uPlot chart will show altitude changes over time

軌道要素

1 63244U 25052AL 25340.98288188 .00007208 00000-0 68816-3 0 9998
2 63244 97.7097 230.9911 0006399 108.2786 251.9131 14.93573761 39903
Epoch: Dec 6, 2025 • Age: 26 hours

現在のステータス

高度 599.7 km
速度 7.56 km/s
衛星直下点 -26.64°S, 140.92°E
打ち上げ日 Mar 15, 2025
運用期間 0.7 years
タイプ other

技術仕様

分類 Payload
質量 16.00 kg
乾燥質量 16.00 kg
総質量 16.00 kg
長さ 0.30 m
直径 0.20 m
スパン 1.50 m
形状 Box+2 pan
製造者 USPACE
バスタイプ Cubesat 12U
フェーズステータス In Orbit
所有者/国 USPACE/F

大規模コンステレーション

Loading constellations...